EHI
0 0 0 0 0 0 0 0 0 0 0 0 0 0 0 0 0 0 0 0 0 1 2 2 1 0 0 0 0 0 0 0 0 0 0 1 1 1 1 1 0 1 2
0 0 0 0 0 0 0 0 0 0 0 0 0 0 0 0 0 0 0 0 0 1 2 2 1 1 0 0 0 0 0 0 0 0 0 0 1 1 1 1 1 1 3
0 0 0 0 0 0 0 0 0 0 0 0 0 0 0 0 0 0 0 0 0 0 1 2 2 2 1 0 0 0 0 0 0 0 0 0 0 0 0 1 1 1 3
0 0 0 0 1 1 1 0 0 0 0 0 0 0 0 0 0 0 0 0 0 0 0 1 2 2 1 0 0 0 0 0 0 0 0 0 0 0 0 0 0 1 1
0 0 0 0 1 2 1 0 0 0 0 0 0 0 0 0 0 0 0 0 0 0 0 0 1 2 1 0 0 0 0 0 0 0 0 0 0 0 0 0 0 0 0
0 0 0 0 0 1 1 0 0 0 0 0 0 0 0 0 0 0 0 0 0 0 0 0 0 1 1 0 0 0 0 0 0 0 0 0 0 0 0 0 0 0 0
0 0 0 0 0 0 0 0 0 0 0 0 0 0 0 0 0 0 0 0 0 0 0 0 0 0 0 0 0 0 0 0 0 0 0 0 0 0 0 0 0 0 0
0 0 0 0 0 0 0 0 0 0 0 0 0 0 0 0 0 0 0 0 0 0 0 0 0 0 0 0 0 0 0 0 0 0 0 0 0 0 0 0 0 0 0
0 0 0 0 0 0 0 0 0 0 0 0 0 0 0 0 0 0 0 0 0 0 0 0 0 0 0 0 0 0 0 0 0 0 0 0 0 0 0 0 0 0 0
0 0 0 0 0 0 0 0 0 0 0 0 0 0 0 0 0 0 0 0 0 0 0 0 0 0 0 0 0 0 0 0 0 0 0 0 0 0 0 0 0 0 0
0 0 0 0 0 0 0 0 0 0 0 0 0 0 0 0 0 0 0 0 0 0 0 0 0 0 0 0 0 0 0 0 0 0 0 0 0 0 0 0 0 0 0
0 0 0 0 0 0 0 0 0 0 0 0 0 0 0 0 0 0 0 0 0 0 0 0 0 0 0 0 0 0 0 0 0 0 0 0 0 0 0 0 0 0 0
0 0 0 0 0 0 0 0 0 0 0 0 0 0 0 0 0 0 0 0 0 0 0 0 0 0 0 0 0 0 0 0 0 0 0 0 0 0 0 0 0 0 0
0 0 0 0 0 0 0 0 0 0 0 0 0 0 0 0 0 0 0 0 0 0 0 0 0 0 0 0 0 0 0 0 0 0 0 0 0 0 0 0 0 0 0
0 0 0 0 0 0 0 0 0 0 0 0 0 0 0 0 0 0 0 0 0 0 0 0 0 0 0 0 0 0 0 0 0 0 0 0 0 0 0 0 0 0 0
0 0 0 0 0 0 0 0 0 0 0 0 0 0 0 0 0 0 0 0 0 0 0 0 0 0 0 0 0 0 0 0 0 0 0 0 0 0 0 0 0 0 0
0 0 0 0 0 0 0 0 0 0 0 0 0 0 0 0 0 0 0 0 0 0 0 0 0 0 0 0 0 0 0 0 0 0 0 0 0 0 0 0 0 0 0
0 0 0 0 0 0 0 0 0 0 0 0 0 0 0 0 0 0 0 0 0 0 0 0 0 0 0 0 0 0 0 0 0 0 0 0 0 0 0 0 0 0 0
0 0 0 0 0 0 0 0 0 0 0 0 0 0 0 0 0 0 0 0 0 0 0 0 0 0 0 0 0 0 0 0 0 0 0 0 0 0 0 0 0 0 0
0 0 0 0 0 0 0 0 0 0 0 0 0 0 0 0 0 0 0 0 0 0 0 0 0 0 0 0 0 0 0 0 0 0 0 0 0 0 0 0 0 0 0
0 0 0 0 0 0 0 0 0 0 0 0 0 0 0 0 0 0 0 0 0 0 0 0 0 0 0 0 0 0 0 0 0 0 0 0 0 0 0 0 0 0 0
0 0 0 0 0 0 0 0 0 0 0 0 0 0 0 0 0 0 0 0 0 0 0 0 0 0 0 0 0 0 0 0 0 0 0 0 0 0 0 0 0 0 0
0 0 0 0 0 0 0 0 0 0 0 0 0 0 0 0 0 0 0 0 0 0 0 0 0 0 0 0 0 0 0 0 0 0 0 0 0 0 0 0 0 0 0
0 0 0 0 0 0 0 0 0 0 0 0 0 0 0 0 0 0 0 0 0 0 0 0 0 0 0 0 0 0 0 0 0 0 0 0 0 0 0 0 0 0 0
0 0 0 0 0 0 0 0 0 0 0 0 0 0 0 0 0 0 0 0 0 0 0 0 0 0 0 0 0 0 0 0 0 0 0 0 0 0 0 0 0 0 0
0 0 0 0 0 0 0 0 0 0 0 0 0 0 0 0 0 0 0 0 0 0 0 0 0 0 0 0 0 0 0 0 0 0 0 0 0 0 0 0 0 0 0
Wind_Speed
2 1 1 1 1 1 1 2 2 2 2 2 2 3 3 3 3 2 1 3 6 7 8 9 9 10 10 10 10 10 11 11 11 11 11 11 12 12 12 13 14 14 14
2 1 1 1 1 1 1 1 2 2 2 2 2 3 3 3 3 3 2 3 5 7 9 10 10 11 11 11 11 12 12 12 12 12 12 12 13 13 14 15 15 15 16
2 1 1 1 1 1 2 2 2 2 2 2 3 3 3 3 3 3 3 2 3 6 9 10 10 11 12 13 13 13 13 13 13 13 14 14 14 14 15 15 16 16 16
2 1 1 1 1 1 1 2 2 2 2 2 3 3 3 3 4 4 3 3 3 3 5 9 10 12 13 13 14 14 14 14 14 14 14 15 15 16 16 17 17 17 18
1 1 1 1 1 1 1 2 2 2 2 3 3 3 3 3 4 5 4 4 4 3 3 6 9 11 13 14 14 14 14 14 15 15 15 15 15 16 17 17 18 18 18
1 1 1 1 2 1 1 2 2 2 2 3 4 4 4 4 4 4 4 4 3 4 4 5 4 7 12 14 14 15 15 16 16 16 16 16 16 17 17 18 18 18 19
1 1 1 1 1 1 1 2 2 2 3 2 3 4 4 4 4 3 3 3 4 4 4 5 4 4 5 11 14 16 17 17 18 18 18 18 18 18 18 19 19 19 20
0 0 0 1 1 1 2 2 2 2 2 2 2 4 4 4 3 4 3 4 4 4 5 6 5 5 4 4 8 14 16 18 19 19 19 19 20 20 20 20 20 20 20
0 0 1 1 1 1 2 2 2 2 3 2 1 1 2 4 6 3 4 4 4 4 4 4 6 5 6 4 5 9 15 18 19 20 21 20 21 20 20 20 21 21 21
1 1 1 1 2 1 2 3 2 2 2 3 3 2 3 4 5 7 4 3 5 6 5 6 6 6 6 5 6 11 15 17 19 20 21 21 21 21 21 21 21 21 20
1 2 2 2 2 2 2 3 3 3 2 3 3 3 3 4 4 6 9 6 5 5 5 5 5 6 6 6 5 8 14 17 19 20 20 21 22 22 22 22 22 21 20
1 2 2 2 2 2 3 3 4 4 4 4 4 3 3 4 4 5 8 9 8 6 6 5 5 5 5 5 7 12 14 17 18 19 19 20 21 22 23 23 21 21 20
1 2 2 2 3 3 4 4 4 5 5 5 5 4 4 5 4 5 6 8 9 7 5 4 4 5 6 4 6 11 13 16 17 18 19 20 21 22 23 22 20 20 20
2 3 3 3 4 4 4 4 4 5 4 5 6 6 5 5 4 5 5 6 9 8 6 6 4 4 5 5 7 11 9 16 17 18 19 19 20 20 20 20 19 20 21
2 2 3 4 4 5 5 5 4 5 5 5 6 6 6 5 5 5 5 5 6 10 10 6 4 4 5 5 7 6 6 12 16 18 18 18 18 18 18 19 19 20 20
2 3 4 4 5 5 5 5 5 5 6 6 5 7 7 5 5 5 5 5 5 7 10 7 5 6 6 7 10 7 7 14 15 16 16 16 16 16 17 18 18 19 19
2 3 4 4 5 5 5 5 6 6 6 7 6 7 8 7 6 5 5 6 6 6 10 9 6 5 6 7 7 5 6 6 7 13 15 15 15 15 16 16 16 16 16
3 3 4 4 5 5 5 6 7 6 6 7 7 7 8 7 7 6 6 7 6 6 7 10 7 6 6 6 6 6 7 6 6 11 13 14 14 14 14 13 13 13 12
3 4 4 4 5 5 5 6 6 6 7 7 7 7 8 7 8 6 6 6 6 6 6 7 8 6 5 6 6 6 7 5 6 8 10 11 12 13 13 12 11 10 8
3 4 4 5 5 5 6 6 6 6 7 7 7 7 8 8 8 8 7 7 6 6 6 6 7 6 5 5 4 5 6 4 5 6 7 9 10 12 12 12 9 6 5
4 4 4 5 5 5 5 6 6 7 8 8 8 8 8 10 12 9 7 7 6 6 6 6 6 6 5 4 4 4 5 5 5 4 4 5 6 6 6 7 6 5 6
4 4 4 5 6 6 9 12 10 7 7 8 8 8 8 9 10 13 14 12 10 8 7 6 6 6 7 5 4 4 4 5 5 3 4 5 4 5 4 3 5 6 7
4 4 5 5 6 7 11 13 13 8 7 7 7 7 7 7 9 7 9 11 10 12 12 8 7 8 7 6 5 5 4 4 5 4 4 5 4 4 4 4 7 7 8
4 4 5 6 6 8 12 13 13 8 6 6 6 7 7 7 7 7 6 6 6 6 7 6 5 6 6 5 5 5 4 4 3 3 2 3 4 3 4 3 6 7 8
4 4 5 6 6 8 11 12 12 5 5 6 6 6 6 6 9 10 6 5 6 5 5 6 6 6 7 7 5 2 2 2 3 4 2 2 2 3 3 3 4 8 8
4 5 6 6 6 7 10 11 11 4 4 5 4 5 7 8 9 8 5 4 5 5 4 4 4 5 4 4 5 2 2 2 2 3 2 1 2 2 2 3 3 4 4
Wind_Direction
53 40 35 24 19 13 3 343 341 344 339 333 331 331 323 320 316 316 301 299 299 301 301 303 304 302 301 299 297 296 295 294 292 290 288 287 285 278 272 269 266 263 260
59 43 31 20 6 354 345 337 328 326 316 317 313 313 307 306 310 314 300 298 298 299 298 298 299 301 302 301 298 296 294 292 292 290 288 285 284 281 277 271 268 266 264
48 44 30 13 347 343 340 333 325 331 324 328 322 316 309 301 299 300 295 287 288 291 293 294 297 299 300 300 299 298 295 292 291 290 287 285 284 282 278 276 272 268 266
51 37 28 357 340 347 334 317 323 332 324 321 310 303 298 295 290 286 283 279 276 277 284 294 296 296 297 299 298 296 294 293 293 292 290 287 284 283 281 277 275 273 270
47 45 17 340 352 347 326 318 332 320 311 307 295 289 287 284 282 286 282 276 270 267 263 285 293 297 297 297 298 297 296 296 294 293 291 290 288 287 285 283 278 275 272
47 31 5 344 349 342 327 322 314 316 303 296 303 297 280 273 270 268 273 276 271 270 272 275 274 282 288 291 293 295 296 296 295 293 291 289 287 288 285 285 282 278 275
42 44 357 336 332 322 306 307 310 313 308 309 314 303 283 263 262 264 272 275 275 278 275 270 264 262 274 284 289 291 293 293 293 294 292 289 286 285 285 283 283 280 277
1 332 335 298 306 313 313 308 309 303 302 321 320 317 313 302 292 287 277 274 276 281 276 276 271 268 270 265 276 287 290 291 293 294 293 292 290 287 285 285 283 282 278
223 268 285 290 294 288 289 288 289 295 293 300 305 285 301 292 308 278 273 273 278 280 276 276 273 273 275 271 269 278 285 290 291 293 294 293 291 288 286 285 285 283 281
221 245 260 277 283 285 286 290 298 282 282 289 292 270 257 276 294 301 291 283 282 283 280 287 283 275 271 268 268 280 286 290 291 292 293 293 294 289 288 287 286 282 280
231 240 243 260 271 275 277 283 287 280 267 265 273 276 283 288 275 282 293 293 281 270 273 275 275 274 272 269 264 275 287 289 290 290 293 294 294 293 291 288 286 284 281
247 248 248 252 262 268 270 272 273 271 267 265 265 264 268 273 281 280 287 295 291 281 276 272 272 273 271 272 276 287 290 291 291 291 293 294 293 292 291 289 284 283 282
269 260 269 261 263 263 265 267 270 266 264 262 260 259 259 259 267 276 285 292 294 292 280 271 266 276 286 285 281 285 289 294 293 292 293 293 292 291 289 285 283 283 281
251 254 263 268 269 267 271 269 268 266 265 262 266 263 260 258 258 263 271 286 295 295 286 279 275 273 291 288 282 288 287 292 292 292 292 290 290 289 287 287 285 283 281
265 264 267 268 270 270 269 270 267 270 270 263 262 262 262 261 256 255 257 258 272 290 291 287 288 283 289 291 290 288 284 288 293 293 290 289 291 290 288 287 285 282 281
264 269 273 272 273 273 272 270 271 269 272 272 268 264 266 264 260 256 253 257 254 265 279 284 286 291 295 301 300 298 297 301 298 297 299 296 296 297 295 291 287 284 278
257 267 276 279 280 279 278 277 274 275 275 276 276 274 272 269 263 260 258 257 255 256 274 285 284 288 288 293 299 300 299 294 296 300 300 302 305 304 300 298 295 290 282
259 266 276 281 283 287 286 286 283 279 276 277 275 278 280 278 269 265 262 260 258 255 265 282 290 287 283 284 290 295 299 299 300 303 307 308 310 310 308 306 304 302 293
275 279 279 280 283 285 286 286 286 285 279 275 275 275 278 278 275 272 270 267 264 264 260 271 283 285 286 291 294 295 298 300 304 307 310 315 315 317 320 317 313 313 309
278 278 281 282 284 288 288 289 292 288 282 280 278 275 276 272 270 272 272 265 264 265 265 266 275 281 286 286 285 295 304 307 310 312 316 319 321 324 324 322 322 332 334
287 281 284 287 288 288 285 293 293 289 285 286 284 279 277 277 272 271 275 271 262 260 265 265 271 283 288 289 284 289 299 311 310 309 316 324 326 324 326 331 346 15 17
288 287 285 288 289 291 297 300 300 290 284 282 284 285 282 279 277 279 281 281 272 265 265 263 269 272 280 283 288 294 297 307 306 320 328 323 328 327 333 351 19 31 33
288 289 287 287 286 287 295 298 300 301 287 280 279 282 287 287 289 282 283 284 279 272 265 259 261 264 272 276 276 282 287 293 293 304 320 315 326 328 335 6 27 32 40
290 292 293 291 292 291 298 301 303 300 292 285 278 276 279 283 284 286 285 287 283 277 271 268 259 267 273 270 263 264 269 289 303 308 316 307 318 325 338 355 23 40 44
299 294 292 291 290 293 299 303 307 296 291 293 293 292 288 281 289 295 293 292 296 299 303 295 290 288 288 289 286 286 285 291 305 313 327 313 324 333 344 4 29 42 46
294 297 295 292 289 291 300 308 312 299 294 299 302 304 305 304 302 303 293 288 294 299 306 313 315 312 303 304 309 278 251 256 293 302 319 345 337 347 5 24 34 33 38